Flag for U.S.A. Weather past 2 weeks in Brownsville, Texas, U.S.A.

Now
87 °F

Sunny.


Feels Like: 95 °F
Forecast: 75 / 87 °F
Wind: 15 mph from Southeast

Location: Brownsville / South Padre Island International Airport

Current Time: May 22, 2015 at 11:21:42 AM

Latest Report: May 22, 2015 at 10:53 AM


Visibility: 10 mi

Pressure: 29.99 "Hg

Humidity: 63%

Dew point: 73 °F

Location of BrownsvilleLocation

Historic Weather in Brownsville — Graph

°F

Brownsville temperature yesterday

Maximum temperature yesterday: 85 °F (at 10:00 AM)
Minimum temperature yesterday: 76 °F (at 4:53 PM)
Average temperature yesterday: 79 °F

Past Weeks' High & Low Weather Summary

 TemperatureHumidityPressure
High90 °F (May 9, 1:53 PM)97% (May 22, 1:53 AM)30.07 "Hg (May 22, 1:53 AM)
Low74 °F (May 12, 2:53 AM)54% (May 9, 1:53 PM)29.75 "Hg (May 9, 5:53 PM)
Average81 °F81%29.91 "Hg
* Reported May 7 9:53 AM — May 22 9:53 AM, Brownsville, Weather by CustomWeather, © 2015

Note: Actual official high and low records may vary slightly from our data, if they occured in-between our weather recording intervals... More about our weather records

Advertising

Brownsville weather history for previous 24 hours

 ConditionsComfort  
Time TempWeatherWind HumidityBarometerVisibility
9:53 AM
Fri, May 22
83 °FSunny.10 mph74%30.00 "Hg10 mi
8:53 AM77 °FFog.7 mph90%30.01 "Hg6 mi
7:53 AM76 °FFog.5 mph97%30.01 "Hg1 mi
6:58 AM75 °FFog.5 mph96%30.02 "Hg1 mi
6:00 AM76 °FFog.No wind97%30.03 "Hg5 mi
5:01 AM74 °FFog.3 mph97%30.02 "Hg1 mi
3:53 AM75 °FFog.5 mph96%29.98 "Hg4 mi
2:53 AM76 °FFog.3 mph97%29.98 "Hg5 mi
1:53 AM76 °FClear.No wind97%30.00 "Hg7 mi
12:53 AM77 °FClear.6 mph94%29.99 "Hg8 mi
11:53 PM
Thu, May 21
78 °FClear.8 mph93%29.98 "Hg8 mi
10:53 PM78 °FClear.10 mph90%29.98 "Hg9 mi
9:53 PM77 °FClear.8 mph94%29.98 "Hg8 mi
8:53 PM77 °FSunny.7 mph90%29.99 "Hg10 mi
7:53 PM78 °FSunny.10 mph76%29.93 "Hg10 mi
6:53 PM78 °FPassing clouds.7 mph79%29.91 "Hg10 mi
5:53 PM77 °FPassing clouds.5 mph82%29.91 "Hg10 mi
4:53 PM76 °FLight rain. Scattered clouds.16 mph91%29.85 "Hg10 mi
3:53 PM79 °FLight rain. Passing clouds.15 mph90%29.93 "Hg8 mi
3:00 PM77 °FLight rain. Fog.15 mph94%29.95 "Hg3 mi
1:53 PM80 °FThundershowers. Fog.8 mph90%30.01 "Hg3 mi
12:53 PM81 °FThunderstorms. Cloudy.10 mph82%30.00 "Hg5 mi
11:53 AM85 °FThundershowers. Partly sunny.15 mph75%29.99 "Hg7 mi
Weather by CustomWeather, © 2015

See weather overviewHow to use our weather pages